TIME,DELAY(SENSOR),PRES,OXYGEN,RAWTEMP,T(OPTODE),TCPHASE,FLUOR,BETA(BETA700),BETA(BETA412),BETA(BETA440),CDOM,C(CSC),ED(ED412.40),ED(ED444.00),ED(ED489.70),ED(ED554.30),LU(LU411.80),LU(LU443.40),LU(LU489.60),LU(LU554.10),COMP,TILTX,TILTY,CHECK
1337572048,5811,897.5399780273438000,43.8827705383300800,663.4995727539062000,4.5126929283142090,54.4601516723632800,52,101,87,80,83,15334,2147759332,2147423122,2148003712,2147873664,2147640246,2147057526,2148256146,2147205293,112,4,13,64902
1337575644,5809,961.7999877929688000,47.1557502746582000,671.8427734375000000,4.2373051643371580,54.0916709899902340,53,108,90,80,84,15330,2147760868,2147422445,2148005842,2147873846,2147645613,2147056950,2148256365,2147204891,1522,4,13,47510
1337579244,5810,979.5499877929688000,48.3703117370605500,673.8422851562500000,4.1711878776550290,53.9424781799316400,53,100,92,79,84,15334,2147759652,2147420699,2148005220,2147875556,2147641965,2147056694,2148257371,2147200557,3417,4,13,36193
1337582844,5807,987.3900146484375000,47.8762207031250000,673.7120971679688000,4.1754927635192870,54.0122795104980500,53,103,90,81,83,15332,2147756937,2147422564,2148000530,2147875035,2147643894,2147059145,2148260068,2147200301,268,4,13,40187
1337586444,5809,994.4699707031250000,47.1797294616699200,672.7407836914062000,4.2076168060302730,54.0964088439941400,53,100,88,79,84,15332,2147762587,2147424649,2148006546,2147876132,2147643629,2147056246,2148259282,2147203117,476,4,13,24322
1337590044,5809,995.0499877929688000,46.9430618286132800,672.7531127929688000,4.2072110176086430,54.1346702575683600,52,98,87,79,84,15328,2147760969,2147421312,2148009051,2147877229,2147643163,2147063524,2148258944,2147203145,4,4,13,6573
1337593644,5808,1006.8800048828125000,46.4548110961914060,671.7664794921875000,4.2398238182067870,54.1871681213378900,52,100,89,84,84,15330,2147759506,2147421284,2148003620,2147875830,2147643218,2147057654,2148260525,2147199926,72,5,13,18694
1337597244,5805,1013.1300048828125000,46.0484390258789060,670.9351806640625000,4.2672982215881350,54.2372512817382800,53,102,91,80,84,15329,2147758326,2147420726,2148004937,2147875099,2147643995,2147059593,2148261613,2147198491,392,4,13,34881
1337600844,5811,1009.7299804687500000,45.9472999572753900,671.5095214843750000,4.2483220100402830,54.2552299499511700,53,101,89,79,83,15329,2147760923,2147421696,2148007643,2147873627,2147642486,2147057353,2148260790,2147197869,1379,4,13,28328
1337604444,5811,1008.2000122070312000,45.7554817199707000,671.5250854492188000,4.2478051185607910,54.2850608825683600,52,101,89,80,83,15327,2147762724,2147421833,2148005824,2147875995,2147641408,2147061019,2148257883,2147199140,133,4,13,23951
1337608044,5807,1001.7700195312500000,46.2666091918945300,672.5739135742188000,4.2131347656250000,54.2249984741210940,53,117,88,81,82,15323,2147760941,2147423396,2148005101,2147878326,2147644754,2147062317,2148260717,2147202194,450,4,13,56393
1337611644,5806,1002.5499877929688000,46.5191612243652340,673.0028076171875000,4.1989521980285645,54.1936187744140600,53,101,89,80,83,15325,2147760429,2147424329,2148006966,2147876736,2147646528,2147065499,2148260205,2147202432,299,4,13,33392
1337615244,5809,999.4299926757812000,46.6322784423828100,673.6892700195312000,4.1762499809265140,54.1893005371093750,53,101,88,80,84,15320,2147758564,2147420324,2148008000,2147876809,2147643757,2147060845,2148262089,2147201517,428,4,13,651
1337618844,5806,997.7000122070312000,47.2122993469238300,674.2056884765625000,4.1591639518737790,54.1133689880371100,53,101,89,79,84,15322,2147758546,2147424548,2148007314,2147876891,2147645494,2147063286,2148261860,2147198262,317,4,13,62016
1337622444,5809,1007.7199707031250000,47.1444396972656250,673.7409057617188000,4.1745409965515140,54.1172599792480500,53,98,86,79,83,15321,2147762194,2147421778,2148003940,2147873993,2147641993,2147056978,2148258112,2147203245,489,4,13,49264
1337626044,5811,1012.6900024414062000,46.1625518798828100,672.3358764648438000,4.2210040092468260,54.2359809875488300,53,99,90,80,83,15321,2147760960,2147422546,2148006198,2147874880,2147641142,2147057152,2148265106,2147199104,47,4,13,15952
1337629644,5807,1013.7500000000000000,45.9302291870117200,672.0634765625000000,4.2300071716308590,54.2705497741699200,52,100,87,79,84,15319,2147757394,2147424484,2148007661,2147877056,2147643355,2147059538,2148262829,2147203638,63,4,13,37660
1337633244,5808,1018.1799926757812000,45.8687095642089840,671.9287719726562000,4.2344589233398440,54.2780494689941400,53,99,91,84,83,15318,2147759853,2147421586,2148006134,2147875136,2147647643,2147063497,2148259264,2147199579,437,4,13,58570
1337636844,5808,1017.0200195312500000,45.9780502319335940,671.6209716796875000,4.2446351051330570,54.2596092224121100,53,98,91,80,84,15310,2147761435,2147422043,2148004937,2147876242,2147645385,2147055286,2148260544,2147199606,44,4,13,11165
1337640444,5809,1004.5100097656250000,46.2727699279785160,672.9569702148438000,4.2004661560058590,54.2317504882812500,52,100,86,80,83,15318,2147759323,2147421906,2148006555,2147874651,2147641024,2147061906,2148258578,2147200630,921,4,13,39824
1337644044,5809,1012.2100219726562000,46.8966407775878900,673.7915039062500000,4.1728692054748535,54.1490516662597660,52,100,87,79,84,15316,2147759012,2147422272,2148003840,2147876388,2147639981,2147061842,2148261476,2147198765,415,4,13,38412
1337647644,5809,1008.9699707031250000,46.9880104064941400,674.1002197265625000,4.1626591682434080,54.1399192810058600,53,99,88,78,83,15314,2147760969,2147424493,2148006180,2147875977,2147646592,2147059282,2148263094,2147201481,583,4,13,28501
1337651244,5810,1007.7299804687500000,46.8902816772460940,674.0247802734375000,4.1651501655578610,54.1518592834472660,53,102,88,79,83,15314,2147760713,2147421549,2148005394,2147878573,2147644077,2147060662,2148263744,2147198052,625,4,13,32414
1337654844,5807,1006.2800292968750000,47.0356483459472660,674.2009887695312000,4.1593208312988280,54.1399383544921900,52,99,87,79,83,15315,2147758710,2147416694,2148006930,2147878189,2147645979,2147063680,2148262006,2147201133,3540,4,13,20006
1337658444,5810,1007.8699951171875000,46.8230094909668000,674.1290283203125000,4.1617050170898440,54.1685905456543000,54,102,90,81,83,15313,2147759140,2147421513,2148007268,2147877330,2147643364,2147060077,2148258852,2147199286,3354,4,13,38292
1337662044,5809,1009.9899902343750000,47.0632896423339840,674.8645019531250000,4.1373691558837890,54.1428604125976560,53,98,92,80,83,15272,2147759890,2147420937,2148006134,2147873792,2147644754,2147059904,2148264530,2147199917,3447,4,13,9463
1337665644,5809,1006.3499755859375000,47.5655288696289060,675.2847290039062000,4.1234650611877440,54.0767784118652340,52,100,90,79,82,15283,2147757741,2147421092,2148004525,2147875172,2147645824,2147061970,2148261046,2147197229,294,4,13,32118
1337669244,5809,1007.5300292968750000,47.6298904418945300,674.9312744140625000,4.1351599693298340,54.0623703002929700,53,101,88,80,84,15282,2147759204,2147421110,2148004342,2147874029,2147645430,2147059510,2148261805,2147199625,331,4,13,9989
1337672844,5810,1009.9600219726562000,47.1652297973632800,675.3073730468750000,4.1227130889892580,54.1323204040527340,53,98,88,80,83,15284,2147756534,2147420745,2148006592,2147875730,2147645412,2147057654,2148266614,2147197714,3264,4,13,56669
1337676444,5809,1007.6799926757812000,47.6800918579101560,674.6992797851562000,4.1428380012512210,54.0558013916015600,53,100,90,78,83,15282,2147763072,2147422006,2148006418,2147875245,2147646253,2147058998,2148259574,2147199387,439,4,13,37240
1337680044,5806,1012.8200073242188000,46.8600997924804700,674.3513183593750000,4.1543498039245605,54.1639785766601560,53,99,91,79,83,15281,2147761499,2147418624,2148002724,2147874450,2147646966,2147063021,2148260772,2147195401,3526,4,13,25134
1337683644,5808,1021.5300292968750000,46.2427787780761700,672.5593261718750000,4.2136149406433105,54.2300682067871100,52,99,92,81,83,15278,2147759442,2147420589,2148007168,2147876306,2147643044,2147064027,2148263049,2147198326,240,4,13,54767
1337687244,5808,1018.3599853515625000,45.4035491943359400,671.3950195312500000,4.2521038055419920,54.3347396850585940,53,101,88,80,83,15276,2147757586,2147421650,2148006061,2147872118,2147645275,2147060882,2148258221,2147200237,269,4,13,8441
1337690844,5809,1018.3099975585938000,46.9340705871582000,673.7078247070312000,4.1756381988525390,54.1417198181152340,52,99,88,81,83,15275,2147757860,2147424850,2148008274,2147873636,2147644397,2147059419,2148260644,2147200530,3433,4,13,55603
1337694444,5806,1010.9899902343750000,46.6681098937988300,674.0880737304688000,4.1630568504333500,54.1862411499023440,52,102,87,80,84,15276,2147761142,2147421650,2148008173,2147875830,2147644681,2147059794,2148259565,2147200466,50,4,13,62584
1337698044,5810,1023.4299926757812000,46.9782981872558600,673.7387695312500000,4.1746101379394530,54.1405181884765600,53,99,86,78,83,15255,2147759917,2147420681,2148006445,2147876406,2147644498,2147061705,2148261046,2147196470,3297,4,13,13311
1337701644,5808,1017.1300048828125000,46.3639106750488300,673.7169799804688000,4.1753330230712890,54.2242813110351560,52,100,91,80,83,15274,2147758701,2147422281,2148003867,2147877110,2147646537,2147057243,2148265261,2147198473,3413,4,13,26159
1337705244,5808,1012.6400146484375000,46.4407691955566400,674.0651855468750000,4.1638150215148930,54.2195091247558600,53,99,91,78,83,15274,2147761965,2147422016,2148004032,2147877147,2147642678,2147056749,2148262756,2147203574,344,4,13,42708
1337708844,5811,1016.3699951171875000,48.3352088928222660,675.9171142578125000,4.1025328636169430,53.9767608642578100,53,100,89,79,83,15276,2147761344,2147422080,2148008950,2147877110,2147645074,2147058496,2148261147,2147199104,2983,4,13,18949
1337712444,5807,1011.2000122070312000,48.0732116699218750,675.4027709960938000,4.1195549964904785,54.0052299499511700,53,99,87,79,84,15276,2147760484,2147420278,2148008393,2147875154,2147646208,2147059949,2148264274,2147200128,3563,4,13,12335
1337716044,5805,1026.0400390625000000,46.9906997680664060,673.4735717773438000,4.1833839416503910,54.1373786926269500,53,102,90,81,84,15272,2147759350,2147423268,2148005238,2147870509,2147642889,2147060571,2148261860,2147201444,94,5,13,50354
1337716256,5809,1022.4699707031250000,46.8549385070800800,673.2542724609375000,4.1906337738037110,54.1497917175293000,52,104,91,79,82,15288,2147758747,2147425371,2148006765,2147875309,2147643995,2147059291,2148257444,2147201700,169,4,13,34110
